Location: Vancouver
(49.2500°N, 123.1330°W)
Time: 11:49:03
(UTC-07:00)

Oscar 11 - Visible Passes

Search period start: 28 June 2016 00:00
Search period end: 08 July 2016 00:00
Orbit: 616 x 625 km, 97.7° (Epoch: 28 June)

Date Brightness Start Highest point End Pass type
(mag) Time Alt. Az. Time Alt. Az. Time Alt. Az.
28 Jun 9.8 23:09:04 10° WSW 23:10:41 12° W 23:12:17 10° WNW visible
30 Jun 8.2 22:04:44 10° S 22:08:53 44° W 22:13:05 10° NNW visible
01 Jul 8.8 22:22:37 10° SSW 22:26:27 30° W 22:30:18 10° NNW visible
02 Jul 9.3 22:40:45 10° SW 22:44:02 21° W 22:47:21 10° NW visible
03 Jul 9.7 22:59:17 10° WSW 23:01:41 14° W 23:04:04 10° NW visible
05 Jul 7.8 21:55:42 10° S 21:59:58 53° W 22:04:16 10° NNW visible
06 Jul 8.5 22:13:28 10° SSW 22:17:29 36° W 22:21:33 10° NNW visible
07 Jul 9.1 22:31:28 10° SSW 22:35:03 25° W 22:38:41 10° NW visible
